Hourly Data Report for September 01, 2017

All times are specified in Local Standard Time (LST). Add 1 hour to adjust for Daylight Saving Time where and when it is observed.

ST. STEPHEN
NEW BRUNSWICK

45°12'36.600" N
67°15'10.300" W
26.10 m
8104935
71607
WSS

Download Data

Hourly Data (September 2017)
Hourly Data Report for September 1, 2017
Temp Definition
°C
Dew Point Temp Definition
°C
Rel Hum Definition
%
Wind Dir Definition
10's deg

Wind Spd Definition
km/h
Visibility Definition
km
Stn Press Definition
kPa
Hmdx Definition


Wind Chill Definition


Weather Definition


TIME
00:00 11.5 7.6 77 29 3   100.51     LegendNANA
01:00 10.7 8.3 85 28 7   100.51     LegendNANA
02:00 7.3 5.5 89   0   100.52     LegendNANA
03:00 5.6 4.5 93   0   100.53     LegendNANA
04:00 4.6 3.8 94   0   100.54     LegendNANA
05:00 6.5 5.8 95 27 5   100.55     LegendNANA
06:00 4.9 4.2 95   0   100.57     LegendNANA
07:00 7.4 6.7 96   0   100.61     LegendNANA
08:00 11.7 6.9 72 27 10   100.61     LegendNANA
09:00 13.5 6.5 63 27 12   100.60     LegendNANA
10:00 13.9 4.4 53 27 13   100.58     LegendNANA
11:00 14.8 3.3 46 25 19   100.55     LegendNANA
12:00 16.6 2.7 39 27 19   100.51     LegendNANA
13:00 17.1 3.1 39 27 19   100.55     LegendNANA
14:00 16.0 2.0 39 28 23   100.56     LegendNANA
15:00 14.7 3.7 48 27 14   100.60     LegendNANA
16:00 14.0 3.5 49 29 19   100.67     LegendNANA
17:00 13.8 4.0 51 30 16   100.74     LegendNANA
18:00 13.4 4.4 54 29 15   100.85     LegendNANA
19:00 12.6 4.7 59 30 16   100.92     LegendNANA
20:00 12.2 5.0 61 29 12   100.99     LegendNANA
21:00 12.5 5.1 61 30 13   101.09     LegendNANA
22:00 12.4 5.0 61 29 9   101.16     LegendNANA
23:00 12.0 4.9 62 29 11   101.23     LegendNANA

Notes on Data Quality.

Legend

  • E = Estimated
  • M = Missing
  • NA = Not Available
  • ‡ = Partner data that is not subject to review by the National Climate Archives
Date modified: